Time,TemperatureF,DewpointF,PressureIn,WindDirection,WindDirectionDegrees,WindSpeedMPH,WindSpeedGustMPH,Humidity,HourlyPrecipIn,Conditions,Clouds,dailyrainin,SoftwareType,DateUTC
2013-05-26 00:01:00,56.0,56.0,29.85,SSE,160,11.0,20.0,100,0.00,,,0.02,,2013-05-26 03:01:00,
2013-05-26 00:11:00,56.0,56.0,29.85,SSE,160,11.0,20.0,100,0.00,,,0.02,,2013-05-26 03:11:00,
2013-05-26 00:22:00,55.0,55.0,29.85,SSE,156,9.0,18.0,100,0.00,,,0.02,,2013-05-26 03:22:00,
2013-05-26 00:33:00,55.0,55.0,29.85,SSE,168,7.0,15.0,100,0.00,,,0.02,,2013-05-26 03:33:00,
2013-05-26 00:43:00,55.0,55.0,29.85,SSE,168,7.0,15.0,100,0.00,,,0.02,,2013-05-26 03:43:00,
2013-05-26 00:53:00,54.0,54.0,29.84,South,176,9.0,12.0,100,0.00,,,0.02,,2013-05-26 03:53:00,
2013-05-26 01:02:00,54.0,54.0,29.83,SSE,151,7.0,14.0,100,0.00,,,0.02,,2013-05-26 04:02:00,
2013-05-26 01:12:00,55.0,55.0,29.83,SSE,160,10.0,16.0,100,0.00,,,0.02,,2013-05-26 04:12:00,
2013-05-26 01:23:00,55.0,55.0,29.83,SSE,160,10.0,16.0,100,0.00,,,0.02,,2013-05-26 04:23:00,
2013-05-26 01:33:00,55.0,55.0,29.83,SE,146,9.0,16.0,100,0.00,,,0.02,,2013-05-26 04:33:00,
2013-05-26 01:42:00,55.0,55.0,29.83,SE,146,9.0,16.0,100,0.00,,,0.02,,2013-05-26 04:42:00,
2013-05-26 01:52:00,55.0,55.0,29.83,SSE,149,10.0,17.0,100,0.00,,,0.02,,2013-05-26 04:52:00,
2013-05-26 02:02:00,55.0,55.0,29.83,SSE,160,9.0,16.0,100,0.00,,,0.02,,2013-05-26 05:02:00,
2013-05-26 02:12:00,55.0,55.0,29.83,SSE,160,9.0,16.0,100,0.00,,,0.02,,2013-05-26 05:12:00,
2013-05-26 02:22:00,55.0,55.0,29.83,SSE,160,12.0,17.0,100,0.00,,,0.02,,2013-05-26 05:22:00,
2013-05-26 02:32:00,55.0,55.0,29.83,SSE,163,10.0,18.0,100,0.00,,,0.02,,2013-05-26 05:32:00,
2013-05-26 02:42:00,55.0,55.0,29.83,SSE,163,10.0,18.0,100,0.00,,,0.02,,2013-05-26 05:42:00,
2013-05-26 02:52:00,55.0,55.0,29.83,SSE,154,10.0,18.0,100,0.00,,,0.02,,2013-05-26 05:52:00,
2013-05-26 03:01:00,54.0,54.0,29.82,SSE,151,7.0,20.0,100,0.00,,,0.02,,2013-05-26 06:01:00,
2013-05-26 03:12:00,54.0,54.0,29.82,SSE,151,7.0,20.0,100,0.00,,,0.02,,2013-05-26 06:12:00,
2013-05-26 03:22:00,54.0,54.0,29.82,SSE,156,8.0,12.0,100,0.00,,,0.02,,2013-05-26 06:22:00,
2013-05-26 03:32:00,54.0,54.0,29.82,SSE,155,6.0,13.0,100,0.00,,,0.02,,2013-05-26 06:32:00,
2013-05-26 03:42:00,54.0,54.0,29.82,SSE,155,6.0,13.0,100,0.00,,,0.02,,2013-05-26 06:42:00,
2013-05-26 03:52:00,54.0,54.0,29.82,SSE,151,7.0,12.0,100,0.00,,,0.02,,2013-05-26 06:52:00,
2013-05-26 04:01:00,53.0,53.0,29.83,SSE,162,10.0,18.0,100,0.00,,,0.02,,2013-05-26 07:01:00,
2013-05-26 04:11:00,53.0,53.0,29.83,SSE,162,10.0,18.0,100,0.00,,,0.02,,2013-05-26 07:11:00,
2013-05-26 04:22:00,52.0,52.0,29.83,South,178,10.0,17.0,100,0.00,,,0.02,,2013-05-26 07:22:00,
2013-05-26 04:32:00,53.0,53.0,29.83,South,170,10.0,15.0,100,0.00,,,0.02,,2013-05-26 07:32:00,
2013-05-26 04:42:00,53.0,53.0,29.83,South,170,10.0,15.0,100,0.00,,,0.02,,2013-05-26 07:42:00,
2013-05-26 04:52:00,52.0,52.0,29.83,South,171,9.0,14.0,100,0.00,,,0.02,,2013-05-26 07:52:00,
2013-05-26 05:01:00,52.0,52.0,29.82,South,173,9.0,14.0,100,0.00,,,0.02,,2013-05-26 08:01:00,
2013-05-26 05:12:00,52.0,52.0,29.82,South,173,9.0,14.0,100,0.00,,,0.02,,2013-05-26 08:12:00,
2013-05-26 05:21:00,51.0,51.0,29.82,SE,143,5.0,12.0,100,0.00,,,0.02,,2013-05-26 08:21:00,
2013-05-26 05:32:00,51.0,51.0,29.81,SSE,159,1.0,9.0,100,0.00,,,0.02,,2013-05-26 08:32:00,
2013-05-26 05:42:00,51.0,51.0,29.81,SSE,159,1.0,9.0,100,0.00,,,0.02,,2013-05-26 08:42:00,
2013-05-26 05:53:00,51.0,51.0,29.82,South,169,5.0,8.0,100,0.00,,,0.02,,2013-05-26 08:53:00,
2013-05-26 06:01:00,50.0,50.0,29.83,SSE,157,5.0,10.0,100,0.00,,,0.02,,2013-05-26 09:01:00,
2013-05-26 06:11:00,51.0,51.0,29.83,South,171,10.0,13.0,100,0.00,,,0.02,,2013-05-26 09:11:00,
2013-05-26 06:21:00,51.0,51.0,29.83,South,171,10.0,13.0,100,0.00,,,0.02,,2013-05-26 09:21:00,
2013-05-26 06:33:00,51.0,51.0,29.84,SSE,168,8.0,16.0,100,0.00,,,0.02,,2013-05-26 09:33:00,
2013-05-26 06:42:00,51.0,51.0,29.84,SSE,168,8.0,16.0,100,0.00,,,0.02,,2013-05-26 09:42:00,
2013-05-26 06:53:00,51.0,51.0,29.84,South,172,9.0,15.0,100,0.00,,,0.02,,2013-05-26 09:53:00,
2013-05-26 07:02:00,52.0,52.0,29.83,SSE,154,6.0,13.0,100,0.00,,,0.02,,2013-05-26 10:02:00,
2013-05-26 07:12:00,52.0,52.0,29.83,SSE,154,6.0,13.0,100,0.00,,,0.02,,2013-05-26 10:12:00,
2013-05-26 07:23:00,53.0,53.0,29.84,SSE,158,7.0,12.0,100,0.00,,,0.02,,2013-05-26 10:23:00,
2013-05-26 07:33:00,53.0,53.0,29.85,SSE,163,10.0,15.0,100,0.00,,,0.02,,2013-05-26 10:33:00,
2013-05-26 07:42:00,53.0,53.0,29.84,South,172,7.0,14.0,100,0.00,,,0.02,,2013-05-26 10:42:00,
2013-05-26 07:52:00,53.0,53.0,29.84,South,172,7.0,14.0,100,0.00,,,0.02,,2013-05-26 10:52:00,
2013-05-26 08:03:00,53.0,53.0,29.85,SSE,153,5.0,13.0,100,0.00,,,0.02,,2013-05-26 11:03:00,
2013-05-26 08:11:00,53.0,53.0,29.85,SSE,153,5.0,13.0,100,0.00,,,0.02,,2013-05-26 11:11:00,
2013-05-26 08:22:00,52.0,52.0,29.86,SSE,158,6.0,12.0,100,0.00,,,0.02,,2013-05-26 11:22:00,
2013-05-26 08:32:00,53.0,53.0,29.85,SSE,148,7.0,14.0,100,0.00,,,0.02,,2013-05-26 11:32:00,
2013-05-26 08:42:00,53.0,53.0,29.85,SSE,148,7.0,14.0,100,0.00,,,0.02,,2013-05-26 11:42:00,
2013-05-26 08:52:00,54.0,54.0,29.85,SSE,157,10.0,16.0,100,0.00,,,0.02,,2013-05-26 11:52:00,
2013-05-26 09:02:00,54.0,54.0,29.86,SSE,150,9.0,18.0,100,0.00,,,0.02,,2013-05-26 12:02:00,
2013-05-26 09:12:00,54.0,54.0,29.86,SSE,150,9.0,18.0,100,0.00,,,0.02,,2013-05-26 12:12:00,
2013-05-26 09:21:00,54.0,54.0,29.85,SSE,157,12.0,20.0,100,0.00,,,0.02,,2013-05-26 12:21:00,
2013-05-26 09:32:00,55.0,55.0,29.85,SSE,149,10.0,20.0,100,0.00,,,0.02,,2013-05-26 12:32:00,
2013-05-26 09:42:00,55.0,55.0,29.85,SSE,149,10.0,20.0,100,0.00,,,0.02,,2013-05-26 12:42:00,
2013-05-26 09:52:00,57.0,57.0,29.86,SE,143,10.0,17.0,100,0.00,,,0.02,,2013-05-26 12:52:00,
2013-05-26 10:02:00,56.0,56.0,29.86,SSE,153,10.0,16.0,100,0.00,,,0.02,,2013-05-26 13:02:00,
2013-05-26 10:11:00,56.0,56.0,29.86,SSE,153,10.0,16.0,100,0.00,,,0.02,,2013-05-26 13:11:00,
2013-05-26 10:21:00,57.0,57.0,29.85,SSE,157,10.0,17.0,100,0.00,,,0.01,,2013-05-26 13:21:00,
2013-05-26 10:32:00,59.0,59.0,29.85,SSE,151,9.0,18.0,100,0.00,,,0.01,,2013-05-26 13:32:00,
2013-05-26 10:42:00,59.0,59.0,29.84,South,171,9.0,15.0,100,0.00,,,0.01,,2013-05-26 13:42:00,
2013-05-26 10:52:00,59.0,59.0,29.84,South,171,9.0,15.0,100,0.00,,,0.01,,2013-05-26 13:52:00,
2013-05-26 11:02:00,60.0,60.0,29.83,SSE,166,9.0,16.0,100,0.00,,,0.01,,2013-05-26 14:02:00,
2013-05-26 11:11:00,60.0,60.0,29.83,South,173,10.0,17.0,100,0.00,,,0.01,,2013-05-26 14:11:00,
2013-05-26 11:21:00,60.0,60.0,29.83,South,173,10.0,17.0,100,0.00,,,0.01,,2013-05-26 14:21:00,
2013-05-26 11:32:00,61.0,60.0,29.83,SSE,166,8.0,18.0,97,0.00,,,0.01,,2013-05-26 14:32:00,
2013-05-26 11:42:00,62.0,59.0,29.83,SE,144,10.0,16.0,91,0.00,,,0.01,,2013-05-26 14:42:00,
2013-05-26 11:52:00,62.0,59.0,29.83,SE,144,10.0,16.0,91,0.00,,,0.01,,2013-05-26 14:52:00,
2013-05-26 12:01:00,62.0,58.0,29.82,SSE,151,10.0,16.0,88,0.00,,,0.01,,2013-05-26 15:01:00,
2013-05-26 12:12:00,62.0,58.0,29.82,SSE,151,10.0,16.0,88,0.00,,,0.01,,2013-05-26 15:12:00,
2013-05-26 12:22:00,60.0,55.0,29.82,SSE,152,8.0,17.0,83,0.00,,,0.01,,2013-05-26 15:22:00,
2013-05-26 12:33:00,61.0,55.0,29.82,SSE,166,13.0,20.0,80,0.00,,,0.01,,2013-05-26 15:33:00,
2013-05-26 12:43:00,61.0,54.0,29.82,SSE,162,12.0,20.0,78,0.00,,,0.01,,2013-05-26 15:43:00,
2013-05-26 12:53:00,61.0,54.0,29.82,SSE,162,12.0,20.0,78,0.00,,,0.01,,2013-05-26 15:53:00,
2013-05-26 13:03:00,61.0,54.0,29.81,SSE,164,11.0,22.0,77,0.00,,,0.01,,2013-05-26 16:03:00,
2013-05-26 13:12:00,61.0,52.0,29.80,South,180,16.0,23.0,72,0.00,,,0.01,,2013-05-26 16:12:00,
2013-05-26 13:23:00,61.0,52.0,29.80,South,180,16.0,23.0,72,0.00,,,0.01,,2013-05-26 16:23:00,
2013-05-26 13:33:00,61.0,52.0,29.80,South,173,16.0,24.0,71,0.00,,,0.01,,2013-05-26 16:33:00,
2013-05-26 13:42:00,60.0,51.0,29.80,South,175,16.0,26.0,71,0.00,,,0.01,,2013-05-26 16:42:00,
2013-05-26 13:53:00,60.0,51.0,29.80,South,175,16.0,26.0,71,0.00,,,0.01,,2013-05-26 16:53:00,
2013-05-26 14:02:00,60.0,49.0,29.79,South,173,17.0,28.0,68,0.00,,,0.01,,2013-05-26 17:02:00,
2013-05-26 14:11:00,61.0,50.0,29.79,South,174,21.0,28.0,68,0.00,,,0.01,,2013-05-26 17:11:00,
2013-05-26 14:22:00,61.0,50.0,29.79,South,174,21.0,28.0,68,0.00,,,0.01,,2013-05-26 17:22:00,
2013-05-26 14:32:00,61.0,49.0,29.78,South,171,23.0,33.0,65,0.00,,,0.00,,2013-05-26 17:32:00,
2013-05-26 14:42:00,61.0,50.0,29.79,South,178,19.0,32.0,66,0.00,,,0.00,,2013-05-26 17:42:00,
2013-05-26 14:52:00,61.0,50.0,29.79,South,178,19.0,32.0,66,0.00,,,0.00,,2013-05-26 17:52:00,
2013-05-26 15:01:00,61.0,50.0,29.79,South,174,20.0,26.0,66,0.00,,,0.00,,2013-05-26 18:01:00,
2013-05-26 15:12:00,61.0,50.0,29.79,South,174,20.0,26.0,66,0.00,,,0.00,,2013-05-26 18:12:00,
2013-05-26 15:21:00,62.0,49.0,29.79,South,177,18.0,30.0,62,0.00,,,0.00,,2013-05-26 18:21:00,
2013-05-26 15:32:00,62.0,48.0,29.80,South,177,17.0,28.0,60,0.00,,,0.00,,2013-05-26 18:32:00,
2013-05-26 15:42:00,62.0,47.0,29.79,South,174,18.0,28.0,58,0.00,,,0.00,,2013-05-26 18:42:00,
2013-05-26 15:52:00,62.0,47.0,29.79,South,174,18.0,28.0,58,0.00,,,0.00,,2013-05-26 18:52:00,
2013-05-26 16:01:00,62.0,47.0,29.79,South,183,19.0,28.0,58,0.00,,,0.00,,2013-05-26 19:01:00,
2013-05-26 16:11:00,62.0,47.0,29.79,South,183,19.0,28.0,58,0.00,,,0.00,,2013-05-26 19:11:00,
2013-05-26 16:22:00,61.0,46.0,29.79,South,173,18.0,26.0,58,0.00,,,0.00,,2013-05-26 19:22:00,
2013-05-26 16:32:00,59.0,46.0,29.79,South,173,13.0,24.0,62,0.00,,,0.00,,2013-05-26 19:32:00,
2013-05-26 16:42:00,57.0,46.0,29.79,South,178,15.0,22.0,66,0.00,,,0.00,,2013-05-26 19:42:00,
2013-05-26 16:52:00,57.0,46.0,29.79,South,178,15.0,22.0,66,0.00,,,0.00,,2013-05-26 19:52:00,
2013-05-26 17:02:00,56.0,45.0,29.79,South,176,15.0,26.0,67,0.00,,,0.00,,2013-05-26 20:02:00,
2013-05-26 17:11:00,56.0,45.0,29.79,South,176,15.0,26.0,67,0.00,,,0.00,,2013-05-26 20:11:00,
2013-05-26 17:22:00,55.0,45.0,29.79,SSW,194,13.0,25.0,69,0.00,,,0.00,,2013-05-26 20:22:00,
2013-05-26 17:32:00,55.0,45.0,29.79,South,174,16.0,26.0,70,0.00,,,0.00,,2013-05-26 20:32:00,
2013-05-26 17:42:00,54.0,46.0,29.79,South,176,16.0,26.0,74,0.00,,,0.00,,2013-05-26 20:42:00,
2013-05-26 17:52:00,54.0,46.0,29.79,South,176,16.0,26.0,74,0.00,,,0.00,,2013-05-26 20:52:00,
2013-05-26 18:02:00,54.0,45.0,29.79,South,170,16.0,26.0,71,0.00,,,0.00,,2013-05-26 21:02:00,
2013-05-26 18:11:00,54.0,45.0,29.79,South,170,16.0,26.0,71,0.00,,,0.00,,2013-05-26 21:11:00,
2013-05-26 18:22:00,55.0,45.0,29.79,South,171,17.0,26.0,69,0.00,,,0.00,,2013-05-26 21:22:00,
2013-05-26 18:33:00,55.0,45.0,29.79,South,171,13.0,23.0,70,0.00,,,0.00,,2013-05-26 21:33:00,
2013-05-26 18:43:00,54.0,45.0,29.79,South,181,11.0,25.0,72,0.00,,,0.00,,2013-05-26 21:43:00,
2013-05-26 18:53:00,54.0,45.0,29.79,South,181,11.0,25.0,72,0.00,,,0.00,,2013-05-26 21:53:00,
2013-05-26 19:03:00,53.0,44.0,29.78,South,169,16.0,23.0,72,0.00,,,0.00,,2013-05-26 22:03:00,
2013-05-26 19:12:00,54.0,45.0,29.78,South,175,16.0,23.0,71,0.00,,,0.00,,2013-05-26 22:12:00,
2013-05-26 19:23:00,54.0,45.0,29.78,South,175,16.0,23.0,71,0.00,,,0.00,,2013-05-26 22:23:00,
2013-05-26 19:33:00,53.0,44.0,29.78,South,173,14.0,22.0,72,0.00,,,0.00,,2013-05-26 22:33:00,
2013-05-26 19:42:00,52.0,44.0,29.78,South,177,14.0,23.0,73,0.00,,,0.00,,2013-05-26 22:42:00,
2013-05-26 19:53:00,52.0,44.0,29.78,South,177,14.0,23.0,73,0.00,,,0.00,,2013-05-26 22:53:00,
2013-05-26 20:02:00,52.0,44.0,29.78,South,171,13.0,20.0,75,0.00,,,0.00,,2013-05-26 23:02:00,
2013-05-26 20:12:00,51.0,44.0,29.78,South,176,13.0,20.0,76,0.00,,,0.00,,2013-05-26 23:12:00,
2013-05-26 20:22:00,51.0,44.0,29.78,South,176,13.0,20.0,76,0.00,,,0.00,,2013-05-26 23:22:00,
2013-05-26 20:32:00,51.0,44.0,29.78,South,170,17.0,23.0,77,0.00,,,0.00,,2013-05-26 23:32:00,
2013-05-26 20:43:00,51.0,44.0,29.78,South,172,16.0,25.0,77,0.00,,,0.00,,2013-05-26 23:43:00,
2013-05-26 20:52:00,51.0,44.0,29.78,South,172,16.0,25.0,77,0.00,,,0.00,,2013-05-26 23:52:00,
2013-05-26 21:02:00,50.0,44.0,29.78,South,172,17.0,23.0,80,0.00,,,0.00,,2013-05-27 00:02:00,
2013-05-26 21:11:00,49.0,43.0,29.78,South,171,18.0,25.0,81,0.00,,,0.00,,2013-05-27 00:11:00,
2013-05-26 21:22:00,49.0,43.0,29.78,South,171,18.0,25.0,81,0.00,,,0.00,,2013-05-27 00:22:00,
2013-05-26 21:32:00,49.0,43.0,29.78,South,174,14.0,28.0,81,0.00,,,0.00,,2013-05-27 00:32:00,
2013-05-26 21:42:00,49.0,44.0,29.79,South,172,12.0,18.0,83,0.00,,,0.00,,2013-05-27 00:42:00,
2013-05-26 21:52:00,49.0,44.0,29.79,South,172,12.0,18.0,83,0.00,,,0.00,,2013-05-27 00:52:00,
2013-05-26 22:01:00,49.0,44.0,29.78,South,171,13.0,20.0,84,0.00,,,0.00,,2013-05-27 01:01:00,
2013-05-26 22:11:00,49.0,44.0,29.78,South,171,12.0,20.0,84,0.00,,,0.00,,2013-05-27 01:11:00,
2013-05-26 22:22:00,49.0,44.0,29.78,South,171,12.0,20.0,84,0.00,,,0.00,,2013-05-27 01:22:00,
2013-05-26 22:32:00,48.0,43.0,29.79,SW,220,9.0,20.0,84,0.00,,,0.00,,2013-05-27 01:32:00,
2013-05-26 22:42:00,48.0,43.0,29.79,SSW,200,11.0,18.0,84,0.00,,,0.00,,2013-05-27 01:42:00,
2013-05-26 22:52:00,48.0,43.0,29.79,SSW,200,11.0,18.0,84,0.00,,,0.00,,2013-05-27 01:52:00,
2013-05-26 23:02:00,48.0,43.0,29.80,South,191,9.0,20.0,84,0.00,,,0.00,,2013-05-27 02:02:00,
2013-05-26 23:11:00,48.0,43.0,29.79,SW,217,9.0,16.0,84,0.00,,,0.00,,2013-05-27 02:11:00,
2013-05-26 23:22:00,48.0,43.0,29.79,SW,217,9.0,16.0,84,0.00,,,0.00,,2013-05-27 02:22:00,
2013-05-26 23:32:00,48.0,43.0,29.78,SSW,197,13.0,20.0,84,0.00,,,0.00,,2013-05-27 02:32:00,
2013-05-26 23:42:00,47.0,42.0,29.78,South,183,10.0,18.0,83,0.00,,,0.00,,2013-05-27 02:42:00,
2013-05-26 23:52:00,47.0,42.0,29.78,South,183,10.0,18.0,83,0.00,,,0.00,,2013-05-27 02:52:00,